Regional Weather Roundup
Issued by NWS Grand Forks, ND

Home | Current Version | Previous Version | Graphics & Text | Print | Product List | Glossary On
Versions: 1 2 3 4 5 6 7 8 9 10 11 12 13 14 15 16 17 18 19 20 21 22 23 24 25 26 27 28 29 30 31 32 33 34 35 36 37 38 39 40 41 42 43 44 45 46 47 48 49 50
000
ASUS43 KFGF 261910
RWRFGF
PRAIRIE TO PINES  WEATHER ROUNDUP
NATIONAL WEATHER SERVICE EASTERN NORTH DAKOTA/GRAND FORKS ND
100 PM CST SUN FEB 26 2017

 **SATELLITE DATA USED TO AUGMENT SKY COVER AT AUTOMATED STATIONS**
 *****  WEATHER ACROSS EASTERN NORTH DAKOTA  *****

CITY           SKY/WX    TMP DP  RH WIND       PRES   REMARKS
GRAND FORKS    FAIR      18   3  52 W9        29.85F WCI   7
GRAND FRKS AFB FAIR      18   7  62 VRB7      29.85R WCI   8
DEVILS LAKE    NOT AVBL
FARGO          FAIR      17   9  70 NW6       29.88S WCI   9
WAHPETON ARPT  FAIR      19   9  63 N7        29.88F WCI  10
$$

 ***** WEATHER ACROSS CENTRAL AND WESTERN NORTH DAKOTA  *****

CITY           SKY/WX    TMP DP  RH WIND       PRES   REMARKS
BISMARCK       CLOUDY    20  13  74 E5        29.79F WCI  13
MINOT          NOT AVBL
JAMESTOWN      NOT AVBL
MINOT AFB      NOT AVBL
GARRISON         N/A     18  10  71 CALM      29.77R
WILLISTON      FAIR      22  14  71 NW6       29.77S WCI  14
DICKINSON      NOT AVBL
HETTINGER      PTSUNNY   33  21  61 NW20G30   29.71F WCI  21
$$

 *****  OTHER AIRPORT OBSERVATIONS IN OUR AREA  *****

CITY           SKY/WX    TMP DP  RH WIND       PRES   REMARKS
WALHALLA       NOT AVBL
GRAFTON AIRPOR FAIR      16   7  67 W9        29.87S WCI   4
VALLEY CITY AR NOT AVBL
CANDO          NOT AVBL
CAVALIER APRT  NOT AVBL
GWINNER        FAIR      23  14  68 CALM      29.85F
ROLLA          FAIR      12   7  79 SW13      29.75F WCI  -3
 ***** THE ABOVE OBSERVATIONS ARE NON NWS ARE NOT QUALITY
       CONTROLLED AND MAY MIS-REPORT RAIN FOR SNOW...
$$

  *****  WEATHER ACROSS NORTHERN MINNESOTA  *****

CITY           SKY/WX    TMP DP  RH WIND       PRES   REMARKS
FLAG ISLAND    NOT AVBL
WARROAD        NOT AVBL
ROSEAU         NOT AVBL
HALLOCK        NOT AVBL
THF RVR FALLS  NOT AVBL
BAUDETTE       FAIR      17   2  51 NW12      29.77F WCI   4
WASKISH        NOT AVBL
CROOKSTON      NOT AVBL
GREENBUSH NDAW   N/A     14   7  73 W12         N/A  WCI   0
$$
  *****  WEATHER ACROSS CENTRAL AND WEST MINNESOTA  *****

CITY           SKY/WX    TMP DP  RH WIND       PRES   REMARKS
FOSSTON        NOT AVBL
BEMIDJI        NOT AVBL
PARK RAPIDS    FAIR      21   4  47 W7        29.78S WCI  12
ELBOW LAKE     NOT AVBL
WADENA         FAIR      19   9  63 W8        29.81R WCI   9
DETROIT LAKES  NOT AVBL
MOORHEAD       NOT AVBL
FERGUS FALLS   NOT AVBL
MORRIS MN      NOT AVBL
STAPLES        NOT AVBL
$$
  *****  WEATHER ELSEWHERE ACROSS MINNESOTA  *****

CITY           SKY/WX    TMP DP  RH WIND       PRES   REMARKS
DULUTH         NOT AVBL
INTRNTL FALLS  NOT AVBL
ELY            NOT AVBL
CLOQUET        NOT AVBL
WHEATON        NOT AVBL
BRAINERD       FAIR      22   6  50 N7        29.80S WCI  13
HIBBING        NOT AVBL
ALEXANDRIA     FAIR      24  12  60 NW13      29.82S WCI  12
SAINT CLOUD    PTSUNNY   31  14  49 NW17      29.79R WCI  19
MINNEAPOLIS    PTSUNNY   39  19  44 NW20G25   29.79S
$$

  *****  WEATHER ACROSS SOUTH DAKOTA  *****

CITY           SKY/WX    TMP DP  RH WIND       PRES   REMARKS
SIOUX FALLS    NOT AVBL
BROOKINGS      NOT AVBL
WATERTOWN      FAIR      30  17  58 VRB6      29.81S WCI  24
HURON          NOT AVBL
SISSETON       NOT AVBL
ABERDEEN       FAIR      26  16  65 VRB3      29.84F
MITCHELL       FAIR      39  25  57 S8        29.86F
PIERRE         FAIR      41  16  36 W12       29.78F
MOBRIDGE       FAIR      34  20  56 W7        29.74F
RAPID CITY     FAIR      38  15  39 VRB7      29.77S
$$

  *****  SOME WEATHER IN NEARBY STATES *****

CITY           SKY/WX    TMP DP  RH WIND       PRES   REMARKS
GLASGOW MT     CLOUDY    24  17  74 NW9       29.77S WCI  14
GREAT FALLS MT LGT SNOW  23  17  78 N17       29.75R WCI   9
CHEYENNE WY    FAIR      23   9  55 SW12      29.78S WCI  12
SCOTTSBLUFF NE FAIR      30  13  49 W9        29.85F WCI  22
OMAHA NE       FAIR      41  21  44 NW8       29.95F
DES MOINES IA  NOT AVBL
DAVENPORT IA   FAIR      46  26  45 W18G31    29.93F
CHICAGO IL     PTSUNNY   45  19  35 SW22G31   29.93F
EAU CLAIRE WI  NOT AVBL
LA CROSSE WI   FAIR      39  25  57 SW13G21   29.83S
$$

  *****  SOME NATIONAL WEATHER *****

CITY           SKY/WX    TMP DP  RH WIND       PRES   REMARKS
LA GUARDIA NY  FAIR      43  16  33 W13       30.02R
RALEIGH NC     FAIR      54  16  22 W10       30.17F
ATLANTA GA     FAIR      59  15  18 NW5       30.20F
NEW ORLEANS LA FAIR      67  47  48 E13G22    30.15F
OKLAHOMA CITY  CLOUDY    56  31  38 SW13      29.90S
ALBUQUERQUE NM PTSUNNY   44  19  36 VRB3      29.94F
SALT LAKE CITY NOT AVBL
LOS ANGELES CA CLOUDY    53  47  79 E10       30.02S
BOISE ID       PTSUNNY   35  17  47 SE17      29.80F WCI  25
SEATTLE WA     LGT RAIN  38  35  89 E12       29.69S
$$

*** WEATHER ACROSS MANITOBA...SASKATCHEWAN AND ONTARIO ***
                ***ONTARIO***

CITY           SKY/WX    TMP DP  RH WIND       PRES   REMARKS
GERALDTON      FLURRIES  19   9  63 W7        29.54F WCI  10
THUNDER BAY    FLURRIES  23  12  63 NW14G20   29.64S WCI  11
SIOUX LOOKOUT  LGT SNOW   7  -2  66 NW14G22   29.69R DRFTSNOWWCI -10
TORONTO        PTSUNNY   34  18  51 W16       30.02F WCI  23
BIG TROUT LK   MOSUNNY    5  -4  66 W15       29.59S WCI -13
PICKLE LAKE    FLURRIES  10  -2  56 W12       29.58S WCI  -4
DRYDEN         CLOUDY    10   0  61 W16G22    29.69S WCI  -7
KENORA         FLURRIES  12   3  67 W10G20    29.73S WCI  -1
$$
                *** MANITOBA***

CITY           SKY/WX    TMP DP  RH WIND       PRES   REMARKS
BRANDON        CLOUDY    10   5  79 SW12      29.74F WCI  -4
DAUPHIN        CLOUDY    21  12  68 W13G18    29.70F WCI   9
ISLAND LAKE    PTSUNNY    3  -6  66 W10       29.68S WCI -12
PILOT MOUND      N/A     16   7  67 SW10        N/A  WCI   3
THE PAS        FLURRIES  10   1  67 NE5       29.68R WCI   2
THOMPSON       MOSUNNY   -4 -15  59 NW7       29.71F WCI -18
WINNIPEG       MOSUNNY   14   5  67 SW9       29.79S WCI   2
LYNN LAKE      MOSUNNY   -8 -15  71 NW10      29.73S WCI -26
CHURCHILL      CRYSTALS -18 -22  83 NW18      29.71S DRFTSNOWWCI -45
GILLAM         MOSUNNY   -9 -17  70 W10       29.69S WCI -28
$$
                ***SASKATCHEWAN***

CITY           SKY/WX    TMP DP  RH WIND       PRES   REMARKS
ESTEVAN        PTSUNNY   19  14  79 SW13      29.74S WCI   7
KINDERSLEY     MOSUNNY   18   7  62 N23       29.78R WCI   0
LLOYDMINSTER   MOSUNNY    5  -8  56 N16G24    29.84R WCI -14
PRINCE ALBERT  PTSUNNY   12  -2  52 N16G23    29.76S WCI  -4
REGINA         PTSUNNY   23  12  63 NW17      29.73R WCI   9
YORKTON        FLURRIES  19  12  73 NW15G21   29.68S WCI   5
N. BATTLEFORD  SUNNY      7  -6  56 NW23G33   29.84R WCI -14
LA RONGE       FLURRIES   5  -8  56 NW13      29.81R WCI -12
SASKATOON      LGT SNOW  18  12  79 W3        29.75F
SWIFT CURRENT  PTSUNNY   18  12  79 NW15      29.73S WCI   3
$$
NOTE: THESE ARE AUTOMATED STATIONS WITH LIMITED QUALITY CONTROL
      "FAIR" INDICATES FEW OR NO CLOUDS BELOW 12,000 FEET WITH NO
      SIGNIFICANT WEATHER AND/OR OBSTRUCTIONS TO VISIBILITY.
      SKY/WX - SKY CONDITION AND SIGNIFICANT WEATHER.
      TMP - AIR TEMPERATURE.    DP   - DEWPOINT TEMPERATURE.
      RH  - RELATIVE HUMIDITY.  PRES - PRESSURE.
      HX  - HEAT INDEX.         WCI  - WIND CHILL INDEX.
$




USA.gov is the U.S. government's official web portal to all federal, state and local government web resources and services.